[[{"header":{"parameterUnit":"m.s-1","parameterCategory":2,"la1":30.2991,"la2":30.254,"lo1":-89.0895,"lo2":-89.0444,"dy":0.0017,"dx":0.0017,"nx":28,"ny":28,"refTime":"2025-07-05T09:00:00:Z","depth":"0","parameterNumber":2,"parameterNumberName":"U-component_of_CURRENTS"},"data":[0,0,0,0,0,0,0,0,0,0,0,0,0,0,0,0,0,0,0,0,0,0,0,0,0,0,0,0,0,0,0,0,0,0,0,0,0,0,0,0,0,0,0,0,0,0,0,0,0,0,0,0,0,0,0,0,0,0,-0.1317,-0.1317,0,-0.1291,-0.1291,-0.129,-0.1269,-0.1269,-0.1269,-0.1269,-0.1138,-0.1135,-0.1131,0,0,0,0,0,0,0,0,0,0,0,0,0,-0.1357,-0.1356,-0.1317,-0.1317,-0.1317,-0.1291,-0.129,-0.129,-0.1268,-0.1269,-0.1269,-0.1269,-0.1139,-0.1135,-0.1131,0,0,0,0,0,0,0,0,0,0,0,0,0,-0.1332,-0.1355,-0.1317,-0.1307,-0.1306,-0.1291,-0.129,-0.129,-0.1268,-0.1269,-0.1269,-0.1269,-0.1141,-0.1135,-0.113,-0.1091,0,0,-0.1113,-0.1111,0,0,0,0,0,0,0,0,-0.1333,-0.133,-0.1308,-0.1307,-0.1306,-0.1287,-0.1257,-0.1219,-0.1268,-0.1278,-0.1269,-0.1269,-0.1181,-0.1172,-0.1162,-0.1085,-0.1079,-0.1113,-0.1109,-0.1107,-0.1106,0,0,0,0,0,0,0,-0.1335,-0.1331,-0.1302,-0.1308,-0.1307,-0.1307,-0.1303,-0.125,-0.1223,-0.1277,-0.1277,-0.1281,-0.1179,-0.1167,-0.1158,-0.1077,-0.1113,-0.1108,-0.1105,-0.1103,-0.1032,-0.1033,0,0,0,0,0,0,-0.1346,-0.1332,-0.1303,-0.1302,-0.1326,-0.1306,-0.1302,-0.1289,-0.1226,-0.1218,-0.128,-0.128,-0.1177,-0.1165,-0.1154,-0.1139,-0.1107,-0.1102,-0.1099,-0.1031,-0.1032,-0.1034,0,0,0,0,0,0,-0.1347,-0.1343,-0.1304,-0.1321,-0.1317,-0.1305,-0.1292,-0.1289,-0.1283,-0.123,-0.122,-0.1279,-0.1176,-0.1161,-0.1124,-0.1132,-0.11,-0.1095,-0.1029,-0.1031,-0.1033,-0.1087,0,0,0,0,0,0,-0.1347,-0.1343,-0.1335,-0.1321,-0.1316,-0.1311,-0.1292,-0.1288,-0.1287,-0.1285,-0.1225,-0.1213,-0.1175,-0.1132,-0.1118,-0.1124,-0.109,-0.1027,-0.103,-0.1032,-0.1083,-0.109,-0.1096,0,0,0,0,0,-0.1349,-0.1339,-0.1334,-0.1331,-0.1306,-0.1312,-0.1309,-0.13,-0.1287,-0.1292,-0.1253,-0.1215,-0.114,-0.1128,-0.1112,-0.1116,-0.1026,-0.1029,-0.1032,-0.108,-0.1089,-0.1096,0,0,0,0,0,0,-0.1353,-0.1336,-0.1331,-0.1316,-0.1323,-0.1311,-0.1307,-0.1303,-0.1277,-0.1267,-0.1216,-0.1201,-0.118,-0.1143,-0.1132,-0.111,-0.1083,-0.1083,-0.1125,-0.1133,-0.1139,-0.1176,-0.1086,0,0,0,0,0,-0.1351,-0.1336,-0.1334,-0.1325,-0.1325,-0.1317,-0.1315,-0.1313,-0.1292,-0.1281,-0.1241,-0.1203,-0.1179,-0.1152,-0.1124,-0.1091,-0.1091,-0.1092,-0.1099,-0.1105,-0.1127,-0.1148,-0.1159,-0.1044,-0.1044,-0.1044,0,0,-0.1352,-0.134,-0.1333,-0.1325,-0.132,-0.1331,-0.1315,-0.1317,-0.1328,-0.1267,-0.1251,-0.122,-0.118,-0.116,-0.1147,-0.1127,-0.1135,-0.1109,-0.1113,-0.1133,-0.1152,-0.1164,-0.1173,-0.1046,-0.1046,-0.1046,0,0,-0.1355,-0.1334,-0.1329,-0.1335,-0.1338,-0.1338,-0.1344,-0.1336,-0.1333,-0.1315,-0.129,-0.1285,-0.1208,-0.1213,-0.1197,-0.1226,-0.1177,-0.1195,-0.1241,-0.1261,-0.1271,-0.1279,-0.1282,-0.129,-0.119,-0.119,-0.119,0,-0.136,-0.1343,-0.1334,-0.1339,-0.1343,-0.1346,-0.1356,-0.1361,-0.1345,-0.1347,-0.1318,-0.1281,-0.1251,-0.1262,-0.1274,-0.1244,-0.1226,-0.1207,-0.127,-0.1279,-0.1286,-0.1287,-0.1296,-0.1193,-0.1192,-0.1192,-0.1192,0,-0.1366,-0.1355,-0.1353,-0.1357,-0.137,-0.1373,-0.139,-0.14,-0.1386,-0.1389,-0.1391,-0.1363,-0.1349,-0.1338,-0.1303,-0.1344,-0.1303,-0.1281,-0.1248,-0.1301,-0.1298,-0.1306,-0.1197,-0.1196,-0.1195,-0.1194,0,0,-0.1367,-0.1356,-0.1356,-0.1354,-0.1372,-0.1382,-0.1413,-0.1438,-0.1457,-0.1449,-0.1467,-0.1459,-0.145,-0.1437,-0.1408,-0.1422,-0.1461,-0.1364,-0.1364,-0.1366,-0.1476,-0.1418,-0.1421,-0.1426,-0.1428,-0.1429,-0.1447,0,-0.137,-0.1365,-0.137,-0.1383,-0.138,-0.1404,-0.1433,-0.1465,-0.1474,-0.1494,-0.1505,-0.1503,-0.1485,-0.1466,-0.149,-0.1455,-0.1485,-0.1457,-0.1427,-0.1427,-0.1368,-0.143,-0.1284,-0.1284,-0.1455,-0.1456,-0.1457,0,-0.1374,-0.1364,-0.1364,-0.1375,-0.138,-0.1399,-0.1441,-0.147,-0.1523,-0.1526,-0.1556,-0.1552,-0.1585,-0.1555,-0.1575,-0.154,-0.1531,-0.1514,-0.1514,-0.1453,-0.1385,-0.1262,-0.1292,-0.1228,-0.1469,-0.1468,-0.1467,0,-0.136,-0.1362,-0.1353,-0.1356,-0.138,-0.1393,-0.1415,-0.1472,-0.1491,-0.1549,-0.1554,-0.1602,-0.1593,-0.1613,-0.1592,-0.157,-0.1598,-0.1569,-0.1527,-0.1521,-0.1394,-0.1374,-0.1361,-0.1625,-0.1625,-0.1625,-0.1625,0,-0.1348,-0.1344,-0.1338,-0.1333,-0.1338,-0.1371,-0.1395,-0.1434,-0.1482,-0.15,-0.1562,-0.1567,-0.1601,-0.1613,-0.1612,-0.1588,-0.1625,-0.1561,-0.1535,-0.1406,-0.1388,-0.1323,-0.1371,-0.1626,-0.1626,-0.1626,-0.1626,0,-0.1329,-0.1325,-0.1315,-0.1323,-0.1324,-0.133,-0.1358,-0.1375,-0.1433,-0.1458,-0.1471,-0.1529,-0.1547,-0.159,-0.1607,-0.1588,-0.1554,-0.1582,-0.1422,-0.1379,-0.1268,-0.1327,-0.1397,-0.1359,-0.1537,-0.1536,-0.1535,0,-0.1313,-0.13,-0.1293,-0.128,-0.1275,-0.1282,-0.1284,-0.1338,-0.1354,-0.1418,-0.1417,-0.1463,-0.1477,-0.1501,-0.1485,-0.1501,-0.1524,-0.1377,-0.1343,-0.1266,-0.1313,-0.1369,-0.1336,-0.1187,-0.1183,-0.118,-0.1177,0,-0.1272,-0.1269,-0.1253,-0.1224,-0.121,-0.1205,-0.1209,-0.1216,-0.1277,-0.1301,-0.1315,-0.1334,-0.136,-0.1303,-0.1337,-0.1324,-0.1318,-0.1315,-0.1274,-0.1092,-0.1117,-0.1062,-0.1168,-0.115,-0.1153,-0.1155,-0.1156,-0.1157,-0.1232,-0.1209,-0.1177,-0.1153,-0.114,-0.1113,-0.108,-0.1101,-0.1108,-0.1121,-0.1188,-0.1179,-0.1142,-0.1157,-0.1133,-0.0988,-0.1159,-0.094,-0.1033,-0.1107,-0.1039,-0.1091,-0.1022,-0.1024,-0.1026,-0.1027,-0.1029,0,-0.1154,-0.1128,-0.1102,-0.1056,-0.1009,-0.1029,-0.1012,-0.0974,-0.095,-0.0976,-0.0989,-0.0936,-0.0868,-0.0827,-0.0707,-0.0686,-0.0672,-0.0701,-0.0719,-0.0709,-0.0747,-0.0691,-0.0497,-0.0497,-0.0497,-0.0497,-0.0497,-0.0497,-0.1104,-0.1047,-0.1034,-0.0928,-0.0896,-0.081,-0.0783,-0.0756,-0.0753,-0.0698,-0.066,-0.0664,-0.059,-0.0663,-0.0545,-0.0508,-0.0535,-0.0563,-0.0655,-0.0626,-0.0653,-0.0679,-0.063,-0.0428,-0.0428,-0.0483,-0.0484,-0.0484]},{"header":{"parameterUnit":"m.s-1","parameterCategory":2,"la1":30.2991,"la2":30.254,"lo1":-89.0895,"lo2":-89.0444,"dy":0.0017,"dx":0.0017,"nx":28,"ny":28,"refTime":"2025-07-05T09:00:00:Z","depth":"0","parameterNumber":3,"parameterNumberName":"V-component_of_CURRENTS"},"data":[0,0,0,0,0,0,0,0,0,0,0,0,0,0,0,0,0,0,0,0,0,0,0,0,0,0,0,0,0,0,0,0,0,0,0,0,0,0,0,0,0,0,0,0,0,0,0,0,0,0,0,0,0,0,0,0,0,0,-0.0503,-0.0502,0,-0.0458,-0.0458,-0.0457,-0.0413,-0.0412,-0.0412,-0.0411,-0.0346,-0.0345,-0.0344,0,0,0,0,0,0,0,0,0,0,0,0,0,-0.0529,-0.0528,-0.0503,-0.0502,-0.0502,-0.0458,-0.0458,-0.0457,-0.0413,-0.0412,-0.0412,-0.0411,-0.0346,-0.0345,-0.0343,0,0,0,0,0,0,0,0,0,0,0,0,0,-0.0504,-0.0528,-0.0503,-0.0475,-0.0472,-0.0459,-0.0458,-0.0457,-0.0413,-0.0412,-0.0412,-0.0411,-0.0347,-0.0345,-0.0343,-0.0349,0,0,-0.0338,-0.0337,0,0,0,0,0,0,0,0,-0.0505,-0.0503,-0.0479,-0.0477,-0.0473,-0.0441,-0.0443,-0.042,-0.0413,-0.0435,-0.0411,-0.041,-0.0376,-0.0372,-0.0366,-0.0346,-0.0343,-0.0337,-0.0336,-0.0336,-0.0335,0,0,0,0,0,0,0,-0.0507,-0.0504,-0.0485,-0.0479,-0.0475,-0.0457,-0.0453,-0.0438,-0.041,-0.0433,-0.043,-0.0426,-0.0374,-0.0367,-0.0364,-0.0342,-0.0338,-0.0336,-0.0335,-0.0334,-0.0355,-0.0357,0,0,0,0,0,0,-0.0515,-0.0506,-0.0486,-0.0484,-0.0488,-0.0458,-0.0453,-0.0452,-0.0411,-0.0404,-0.0426,-0.0424,-0.0371,-0.0366,-0.0361,-0.0398,-0.0336,-0.0334,-0.0333,-0.0353,-0.0355,-0.0357,0,0,0,0,0,0,-0.0516,-0.0514,-0.0488,-0.0494,-0.0489,-0.0458,-0.0457,-0.0451,-0.044,-0.0406,-0.0399,-0.0421,-0.037,-0.0364,-0.0362,-0.0394,-0.0333,-0.0331,-0.0351,-0.0354,-0.0356,-0.0452,0,0,0,0,0,0,-0.0517,-0.0515,-0.0514,-0.0495,-0.0489,-0.0488,-0.0458,-0.0451,-0.0439,-0.0435,-0.0399,-0.0392,-0.0369,-0.0365,-0.036,-0.0391,-0.033,-0.0349,-0.0353,-0.0355,-0.0447,-0.0457,-0.0466,0,0,0,0,0,-0.0518,-0.053,-0.0515,-0.0512,-0.0491,-0.0488,-0.0485,-0.0459,-0.044,-0.0443,-0.0425,-0.0393,-0.0381,-0.0365,-0.0359,-0.0389,-0.0348,-0.0352,-0.0355,-0.0442,-0.0455,-0.0466,0,0,0,0,0,0,-0.0538,-0.0525,-0.0509,-0.0514,-0.0503,-0.0481,-0.0482,-0.0462,-0.045,-0.0445,-0.041,-0.0403,-0.0416,-0.039,-0.0372,-0.0406,-0.0361,-0.0364,-0.0429,-0.0441,-0.0451,-0.0462,-0.0328,0,0,0,0,0,-0.0543,-0.0548,-0.053,-0.0533,-0.0532,-0.0506,-0.0499,-0.0483,-0.047,-0.0462,-0.0441,-0.0426,-0.0428,-0.0423,-0.0415,-0.0428,-0.0419,-0.0446,-0.0456,-0.0464,-0.0471,-0.0477,-0.0488,-0.0369,-0.0369,-0.0369,0,0,-0.0547,-0.0543,-0.0542,-0.0537,-0.0526,-0.0539,-0.05,-0.0498,-0.0513,-0.0458,-0.0474,-0.0457,-0.0439,-0.0461,-0.0465,-0.0442,-0.0501,-0.0469,-0.0476,-0.0478,-0.0482,-0.0494,-0.0504,-0.0372,-0.0371,-0.0371,0,0,-0.0572,-0.056,-0.0576,-0.0576,-0.0568,-0.056,-0.0562,-0.0547,-0.0545,-0.0555,-0.0531,-0.0539,-0.0524,-0.0531,-0.0531,-0.059,-0.0553,-0.0581,-0.0639,-0.0646,-0.0656,-0.0664,-0.0701,-0.0711,-0.0586,-0.0586,-0.0586,0,-0.0576,-0.0595,-0.0579,-0.0599,-0.0607,-0.0576,-0.06,-0.0601,-0.0587,-0.0598,-0.0573,-0.0585,-0.0567,-0.0609,-0.063,-0.0615,-0.0612,-0.0595,-0.0659,-0.0667,-0.0674,-0.0709,-0.0719,-0.0591,-0.059,-0.059,-0.0589,0,-0.0615,-0.063,-0.0644,-0.0662,-0.067,-0.0685,-0.0687,-0.0697,-0.0689,-0.0686,-0.0717,-0.0701,-0.0706,-0.0709,-0.0685,-0.0732,-0.0715,-0.0671,-0.0629,-0.0692,-0.0725,-0.0734,-0.0598,-0.0596,-0.0595,-0.0593,0,0,-0.0624,-0.0664,-0.0667,-0.0691,-0.0705,-0.0719,-0.0757,-0.0784,-0.0811,-0.0807,-0.0847,-0.0858,-0.0836,-0.0834,-0.0812,-0.0819,-0.0877,-0.0765,-0.0763,-0.0803,-0.0911,-0.0798,-0.0797,-0.0831,-0.0832,-0.0833,-0.0927,0,-0.0657,-0.0714,-0.0725,-0.078,-0.081,-0.0811,-0.0852,-0.0872,-0.088,-0.091,-0.0911,-0.0931,-0.0889,-0.0891,-0.0898,-0.0874,-0.0899,-0.0857,-0.0842,-0.0843,-0.0735,-0.0803,-0.0667,-0.0728,-0.0935,-0.0937,-0.0938,0,-0.0689,-0.0728,-0.0789,-0.085,-0.0864,-0.0894,-0.095,-0.098,-0.1014,-0.1019,-0.1038,-0.1022,-0.1055,-0.0993,-0.1014,-0.0982,-0.0959,-0.0941,-0.0943,-0.0805,-0.0746,-0.0692,-0.0736,-0.0488,-0.0952,-0.0951,-0.095,0,-0.0705,-0.0771,-0.0826,-0.0844,-0.0907,-0.0941,-0.0973,-0.1012,-0.1048,-0.1083,-0.1106,-0.1126,-0.1144,-0.1119,-0.1084,-0.1045,-0.1098,-0.1039,-0.0934,-0.0928,-0.0793,-0.077,-0.0589,-0.1059,-0.1058,-0.1058,-0.1058,0,-0.0736,-0.0776,-0.0839,-0.0868,-0.0941,-0.0971,-0.104,-0.1067,-0.1116,-0.1169,-0.1159,-0.1206,-0.1167,-0.1184,-0.1135,-0.1074,-0.1145,-0.0962,-0.094,-0.0824,-0.0804,-0.0562,-0.0494,-0.1062,-0.1061,-0.106,-0.106,0,-0.0732,-0.0775,-0.084,-0.0918,-0.0948,-0.0994,-0.1077,-0.1125,-0.1162,-0.1232,-0.1247,-0.1284,-0.1305,-0.1275,-0.1256,-0.1136,-0.0951,-0.1053,-0.0933,-0.0891,-0.049,-0.0435,-0.0346,-0.0234,-0.0934,-0.0932,-0.093,0,-0.0732,-0.0764,-0.0862,-0.0908,-0.0944,-0.1019,-0.1075,-0.1137,-0.1192,-0.1284,-0.1327,-0.137,-0.1421,-0.1359,-0.1168,-0.1074,-0.0926,-0.083,-0.0707,-0.0454,-0.0379,-0.0373,-0.0285,-0.0602,-0.0597,-0.0594,-0.0591,0,-0.0722,-0.0754,-0.0807,-0.0906,-0.0977,-0.1058,-0.1144,-0.1198,-0.128,-0.1346,-0.1446,-0.15,-0.1426,-0.1255,-0.107,-0.0952,-0.0606,-0.0746,-0.0513,-0.0125,-0.0083,0.0033,-0.0583,-0.0558,-0.0561,-0.0564,-0.0565,-0.0567,-0.0697,-0.0732,-0.0806,-0.0897,-0.0983,-0.108,-0.1138,-0.124,-0.1335,-0.1446,-0.1519,-0.1585,-0.1257,-0.0981,-0.0831,-0.0259,-0.0399,-0.0041,-0.0015,-0.0047,0.0145,-0.0401,-0.0311,-0.0312,-0.0314,-0.0315,-0.0317,0,-0.067,-0.0719,-0.0797,-0.0905,-0.0984,-0.104,-0.1169,-0.1225,-0.1335,-0.1455,-0.1557,-0.134,-0.0945,-0.0559,0.0178,0.0479,0.0513,0.0625,0.0693,0.0734,0.0249,0.0363,0.0641,0.0641,0.064,0.064,0.064,0.064,-0.066,-0.0715,-0.0764,-0.0874,-0.0946,-0.1043,-0.1108,-0.1206,-0.1295,-0.1352,-0.133,-0.1332,-0.0656,0.0363,0.1105,0.117,0.1352,0.1304,0.1349,0.1091,0.1032,0.0976,0.1107,0.1537,0.1538,0.1879,0.1882,0.1885]}],[{"header":{"parameterUnit":"m.s-1","parameterCategory":2,"la1":30.2991,"la2":30.254,"lo1":-89.0895,"lo2":-89.0444,"dy":0.0017,"dx":0.0017,"nx":28,"ny":28,"refTime":"2025-07-05T09:00:00:Z","depth":"2","parameterNumber":2,"parameterNumberName":"U-component_of_CURRENTS"},"data":[0,0,0,0,0,0,0,0,0,0,0,0,0,0,0,0,0,0,0,0,0,0,0,0,0,0,0,0,0,0,0,0,0,0,0,0,0,0,0,0,0,0,0,0,0,0,0,0,0,0,0,0,0,0,0,0,0,0,-0.2184,-0.2186,0,-0.2493,-0.2498,-0.2503,-0.27,-0.2699,-0.2699,-0.2698,-0.2703,-0.2703,-0.2704,0,0,0,0,0,0,0,0,0,0,0,0,0,-0.2005,-0.2008,-0.2184,-0.2186,-0.2188,-0.2492,-0.2498,-0.2505,-0.27,-0.2699,-0.2698,-0.2697,-0.2702,-0.2703,-0.2704,0,0,0,0,0,0,0,0,0,0,0,0,0,-0.2195,-0.2009,-0.2184,-0.2307,-0.2319,-0.2491,-0.2499,-0.2506,-0.27,-0.2699,-0.2698,-0.2697,-0.2702,-0.2703,-0.2705,-0.2737,0,0,-0.2709,-0.2709,0,0,0,0,0,0,0,0,-0.2184,-0.2204,-0.2287,-0.2298,-0.2312,-0.2538,-0.2436,-0.2561,-0.2701,-0.2578,-0.2698,-0.2696,-0.2606,-0.2615,-0.2711,-0.2737,-0.2737,-0.2709,-0.2709,-0.271,-0.271,0,0,0,0,0,0,0,-0.217,-0.2193,-0.2328,-0.2288,-0.2304,-0.2427,-0.2453,-0.2465,-0.2606,-0.2589,-0.2599,-0.2599,-0.2614,-0.271,-0.2711,-0.2737,-0.2709,-0.271,-0.2711,-0.2711,-0.2746,-0.2746,0,0,0,0,0,0,-0.2078,-0.2179,-0.2318,-0.2335,-0.222,-0.2428,-0.2459,-0.2484,-0.2613,-0.2628,-0.26,-0.2607,-0.2708,-0.271,-0.2711,-0.2707,-0.271,-0.2711,-0.2712,-0.2746,-0.2746,-0.2746,0,0,0,0,0,0,-0.2074,-0.2089,-0.2305,-0.2246,-0.2279,-0.2429,-0.2459,-0.249,-0.2605,-0.2621,-0.2634,-0.2679,-0.2707,-0.2709,-0.2736,-0.2709,-0.2712,-0.2713,-0.2746,-0.2746,-0.2746,-0.2727,0,0,0,0,0,0,-0.2068,-0.2086,-0.2121,-0.224,-0.2278,-0.2419,-0.2459,-0.2497,-0.2595,-0.2609,-0.2692,-0.2692,-0.2707,-0.2734,-0.2737,-0.2711,-0.2714,-0.2746,-0.2746,-0.2746,-0.2727,-0.2726,-0.2726,0,0,0,0,0,-0.2061,-0.2105,-0.2121,-0.2139,-0.2306,-0.2419,-0.2456,-0.2571,-0.2599,-0.267,-0.2707,-0.2691,-0.2736,-0.2737,-0.274,-0.2713,-0.2746,-0.2746,-0.2746,-0.2728,-0.2727,-0.2726,0,0,0,0,0,0,-0.208,-0.213,-0.2151,-0.2218,-0.2305,-0.2444,-0.2524,-0.2582,-0.2688,-0.2696,-0.2712,-0.2716,-0.272,-0.273,-0.273,-0.2724,-0.273,-0.2731,-0.2714,-0.2713,-0.2712,-0.2681,-0.2715,0,0,0,0,0,-0.2079,-0.2112,-0.2186,-0.2246,-0.2285,-0.2407,-0.2478,-0.2548,-0.2626,-0.2681,-0.2711,-0.2731,-0.2729,-0.2733,-0.2746,-0.2758,-0.2728,-0.2737,-0.2736,-0.2736,-0.2713,-0.2649,-0.2639,-0.2748,-0.2748,-0.2748,0,0,-0.2119,-0.213,-0.2169,-0.2248,-0.2336,-0.2406,-0.2457,-0.2565,-0.2609,-0.2648,-0.2724,-0.2732,-0.2732,-0.2744,-0.2744,-0.2746,-0.2697,-0.2736,-0.2735,-0.2713,-0.2648,-0.2636,-0.2627,-0.2748,-0.2748,-0.2748,0,0,-0.2173,-0.2208,-0.2253,-0.2295,-0.2373,-0.2443,-0.2461,-0.2588,-0.2639,-0.2699,-0.2712,-0.2707,-0.2747,-0.2731,-0.2723,-0.2724,-0.2693,-0.2728,-0.2698,-0.2636,-0.2626,-0.2616,-0.259,-0.2577,-0.2728,-0.2728,-0.2728,0,-0.2217,-0.2242,-0.2295,-0.232,-0.2353,-0.2442,-0.2502,-0.257,-0.2681,-0.2676,-0.2707,-0.2724,-0.2728,-0.269,-0.2696,-0.2715,-0.2693,-0.2701,-0.2631,-0.2621,-0.2611,-0.2586,-0.2573,-0.2727,-0.2727,-0.2727,-0.2727,0,-0.2272,-0.2298,-0.2324,-0.2364,-0.2438,-0.249,-0.2551,-0.26,-0.2642,-0.2672,-0.2661,-0.2688,-0.2674,-0.2679,-0.2691,-0.2622,-0.2634,-0.2635,-0.2626,-0.2598,-0.2575,-0.2562,-0.2726,-0.2726,-0.2726,-0.2727,0,0,-0.233,-0.2357,-0.2364,-0.2354,-0.2441,-0.2491,-0.2544,-0.2586,-0.2554,-0.2636,-0.2591,-0.2612,-0.2604,-0.2594,-0.2601,-0.2563,-0.249,-0.2573,-0.2571,-0.2534,-0.2375,-0.2273,-0.2249,-0.2477,-0.2474,-0.2472,-0.2396,0,-0.2349,-0.2352,-0.2399,-0.2435,-0.2439,-0.25,-0.2519,-0.256,-0.2573,-0.2541,-0.2542,-0.2515,-0.2575,-0.2552,-0.2523,-0.2496,-0.245,-0.2512,-0.2418,-0.2416,-0.2315,-0.2226,-0.2073,-0.198,-0.2382,-0.238,-0.2378,0,-0.2364,-0.2338,-0.2379,-0.2361,-0.238,-0.2438,-0.2433,-0.2463,-0.2433,-0.2426,-0.2412,-0.2406,-0.2379,-0.2416,-0.2364,-0.2405,-0.2375,-0.2364,-0.2361,-0.2251,-0.2284,-0.207,-0.1941,-0.2356,-0.2358,-0.2359,-0.2361,0,-0.2295,-0.2312,-0.2325,-0.2326,-0.2359,-0.2387,-0.242,-0.2423,-0.2386,-0.2352,-0.2312,-0.229,-0.2275,-0.2244,-0.226,-0.2291,-0.2188,-0.2221,-0.2104,-0.21,-0.1938,-0.1922,-0.2128,-0.2128,-0.2128,-0.2129,-0.2129,0,-0.2244,-0.2233,-0.228,-0.2267,-0.224,-0.2321,-0.2279,-0.2295,-0.2263,-0.2203,-0.2247,-0.2196,-0.2226,-0.2191,-0.2198,-0.2111,-0.2137,-0.2057,-0.2042,-0.1932,-0.1917,-0.2222,-0.2234,-0.2126,-0.2126,-0.2127,-0.2127,0,-0.2185,-0.221,-0.2188,-0.2213,-0.2211,-0.221,-0.2198,-0.2128,-0.2157,-0.2084,-0.2077,-0.2096,-0.2084,-0.2102,-0.2053,-0.2015,-0.1951,-0.191,-0.18,-0.177,-0.1925,-0.1937,-0.1741,-0.1736,-0.1732,-0.1729,-0.1726,0,-0.2147,-0.2138,-0.2141,-0.2102,-0.2128,-0.2099,-0.2049,-0.2068,-0.2018,-0.2026,-0.1987,-0.1975,-0.1945,-0.186,-0.1785,-0.1721,-0.1847,-0.1523,-0.1522,-0.1863,-0.1871,-0.189,-0.1908,-0.1331,-0.1325,-0.132,-0.1316,0,-0.2067,-0.2103,-0.2094,-0.2009,-0.1976,-0.1895,-0.1865,-0.1808,-0.1844,-0.1822,-0.1819,-0.1803,-0.1726,-0.1581,-0.1491,-0.1441,-0.152,-0.1416,-0.1752,-0.145,-0.1468,-0.148,-0.1511,-0.1273,-0.1278,-0.1281,-0.1283,-0.1285,-0.2008,-0.1999,-0.1992,-0.1896,-0.1843,-0.1751,-0.1674,-0.1654,-0.161,-0.1598,-0.1645,-0.1576,-0.1526,-0.1297,-0.1205,-0.1097,-0.1215,-0.115,-0.1168,-0.1191,-0.1154,-0.1162,-0.0906,-0.0908,-0.091,-0.0912,-0.0913,0,-0.1885,-0.1892,-0.1838,-0.1751,-0.163,-0.1656,-0.1571,-0.1494,-0.1455,-0.1452,-0.1442,-0.1222,-0.1092,-0.1048,-0.0793,-0.0714,-0.0745,-0.0692,-0.075,-0.079,-0.0827,-0.0777,-0.0426,-0.0425,-0.0424,-0.0423,0,0,-0.1825,-0.1761,-0.1741,-0.1541,-0.1493,-0.137,-0.1321,-0.1265,-0.1243,-0.1161,-0.1086,-0.1139,-0.1064,-0.08,-0.0702,-0.0539,-0.0692,-0.0502,-0.0888,-0.1005,-0.1042,-0.107,-0.1033,0,0,0,0,0]},{"header":{"parameterUnit":"m.s-1","parameterCategory":2,"la1":30.2991,"la2":30.254,"lo1":-89.0895,"lo2":-89.0444,"dy":0.0017,"dx":0.0017,"nx":28,"ny":28,"refTime":"2025-07-05T09:00:00:Z","depth":"2","parameterNumber":3,"parameterNumberName":"V-component_of_CURRENTS"},"data":[0,0,0,0,0,0,0,0,0,0,0,0,0,0,0,0,0,0,0,0,0,0,0,0,0,0,0,0,0,0,0,0,0,0,0,0,0,0,0,0,0,0,0,0,0,0,0,0,0,0,0,0,0,0,0,0,0,0,0.013,0.0131,0,0.0416,0.0421,0.0426,0.0638,0.0638,0.0638,0.0638,0.0827,0.0832,0.0837,0,0,0,0,0,0,0,0,0,0,0,0,0,0.0031,0.0032,0.0129,0.0131,0.0133,0.0415,0.0421,0.0427,0.0639,0.0638,0.0638,0.0638,0.0825,0.0831,0.0837,0,0,0,0,0,0,0,0,0,0,0,0,0,0.0191,0.0032,0.0129,0.0256,0.0269,0.0414,0.0421,0.0429,0.0639,0.0638,0.0638,0.0638,0.0823,0.083,0.0838,0.089,0,0,0.0862,0.0865,0,0,0,0,0,0,0,0,0.0182,0.0197,0.0236,0.0247,0.0261,0.0472,0.0455,0.0571,0.0639,0.0521,0.0638,0.0638,0.0685,0.0704,0.0791,0.0899,0.0907,0.0862,0.0867,0.087,0.0873,0,0,0,0,0,0,0,0.017,0.0188,0.0265,0.0237,0.0252,0.0387,0.041,0.0481,0.0616,0.0532,0.0542,0.0539,0.0694,0.0783,0.0796,0.091,0.0862,0.0869,0.0874,0.0877,0.11,0.1101,0,0,0,0,0,0,0.0077,0.0175,0.0256,0.0272,0.0195,0.0387,0.0413,0.0423,0.0618,0.0642,0.0539,0.0547,0.077,0.0787,0.0803,0.0885,0.087,0.0878,0.0882,0.1099,0.11,0.1102,0,0,0,0,0,0,0.0074,0.0082,0.0244,0.0212,0.0239,0.0384,0.0396,0.0428,0.0525,0.062,0.0647,0.06,0.0771,0.0792,0.0888,0.0892,0.0881,0.0888,0.1097,0.1099,0.1101,0.1041,0,0,0,0,0,0,0.007,0.008,0.0084,0.0206,0.0237,0.0322,0.0395,0.0433,0.0511,0.0527,0.068,0.0699,0.0772,0.0876,0.0895,0.0903,0.0894,0.1096,0.1098,0.1101,0.1041,0.104,0.104,0,0,0,0,0,0.0066,0.0067,0.0083,0.0093,0.0228,0.032,0.0353,0.0471,0.0513,0.0561,0.0671,0.0695,0.0904,0.0884,0.0906,0.0916,0.1095,0.1098,0.11,0.1041,0.104,0.104,0,0,0,0,0,0,0.0046,0.0089,0.011,0.0129,0.0203,0.0347,0.0398,0.0467,0.0603,0.0625,0.0724,0.0751,0.0833,0.0886,0.0861,0.0989,0.0998,0.1005,0.0945,0.0945,0.0945,0.09,0.0901,0,0,0,0,0,0.0025,0.0031,0.01,0.0118,0.0147,0.0273,0.0331,0.0408,0.0518,0.0583,0.0681,0.0783,0.0866,0.0912,0.0998,0.107,0.1069,0.1089,0.1088,0.1087,0.1068,0.1061,0.1056,0.1111,0.1111,0.1111,0,0,0.0025,0.0041,0.0052,0.0111,0.019,0.0251,0.0316,0.04,0.0469,0.0573,0.0708,0.0784,0.0885,0.0977,0.1016,0.1019,0.1076,0.109,0.1088,0.107,0.1064,0.1058,0.1052,0.1113,0.1113,0.1113,0,0,0.0014,0.0037,0.0041,0.0086,0.0156,0.0246,0.0254,0.0393,0.0476,0.0588,0.068,0.0762,0.0898,0.0981,0.1033,0.1077,0.1071,0.1093,0.1056,0.105,0.1044,0.1039,0.1038,0.1033,0.1093,0.1093,0.1092,0,0.0009,0.0013,0.0064,0.0076,0.0116,0.0228,0.027,0.0374,0.0532,0.0567,0.0612,0.0804,0.0903,0.0987,0.1021,0.1073,0.1055,0.1047,0.1043,0.1038,0.1034,0.1034,0.1029,0.109,0.109,0.1091,0.1091,0,-0.0003,0.0008,0.0016,0.0066,0.0133,0.018,0.0293,0.037,0.0464,0.0543,0.0639,0.0783,0.0874,0.0929,0.1,0.1024,0.1017,0.1036,0.103,0.1023,0.1026,0.1022,0.1086,0.1087,0.1088,0.1089,0,0,-0.0041,-0.0002,-0.0001,0.0007,0.0124,0.0171,0.0271,0.0369,0.0381,0.0536,0.0545,0.0747,0.0782,0.0845,0.0935,0.0958,0.0948,0.0976,0.0977,0.0947,0.0913,0.095,0.0949,0.0939,0.0938,0.0937,0.0929,0,-0.0064,-0.0074,-0.0016,0.0025,0.0041,0.0151,0.0218,0.0316,0.0396,0.0426,0.0556,0.0615,0.0762,0.0782,0.0835,0.0909,0.0932,0.0948,0.0948,0.0948,0.0959,0.0945,0.09,0.0891,0.0925,0.0924,0.0923,0,-0.0098,-0.0105,-0.0086,-0.0045,-0.0025,0.0031,0.0107,0.0182,0.025,0.0293,0.0365,0.0435,0.0541,0.0627,0.0761,0.0749,0.0824,0.0886,0.0886,0.0933,0.0977,0.0906,0.0882,0.0916,0.0917,0.0918,0.0918,0,-0.0177,-0.0154,-0.0145,-0.0129,-0.005,-0.002,0.0044,0.0128,0.0151,0.0189,0.0172,0.0291,0.0352,0.0448,0.0652,0.0667,0.0746,0.0783,0.0891,0.0895,0.0866,0.0869,0.0833,0.0833,0.0833,0.0833,0.0833,0,-0.0231,-0.0238,-0.02,-0.0203,-0.0203,-0.011,-0.011,-0.0045,-0.0019,-0.0016,0.0092,0.0117,0.0303,0.0396,0.0549,0.0722,0.0681,0.087,0.0889,0.085,0.0852,0.0884,0.089,0.0833,0.0833,0.0833,0.0833,0,-0.0297,-0.0279,-0.0287,-0.0246,-0.0237,-0.023,-0.0191,-0.0214,-0.0162,-0.0171,-0.0165,-0.0034,0.0092,0.0269,0.0433,0.0613,0.0749,0.0818,0.0773,0.0788,0.0916,0.092,0.0896,0.0897,0.0898,0.0898,0.0899,0,-0.033,-0.0344,-0.0332,-0.0348,-0.0323,-0.0323,-0.0328,-0.0277,-0.0289,-0.0228,-0.0237,-0.0145,-0.0033,0.0221,0.0484,0.07,0.0726,0.0809,0.0859,0.0898,0.0919,0.0921,0.0924,0.0798,0.0798,0.0798,0.0797,0,-0.0385,-0.0376,-0.0377,-0.0418,-0.0429,-0.0456,-0.0452,-0.0487,-0.0418,-0.041,-0.034,-0.0264,-0.0012,0.0239,0.053,0.0662,0.0766,0.0814,0.0832,0.0805,0.081,0.083,0.0834,0.0796,0.0796,0.0796,0.0796,0.0796,-0.0419,-0.0434,-0.0441,-0.0472,-0.0505,-0.0545,-0.0563,-0.0564,-0.0561,-0.0483,-0.0389,-0.019,0.0064,0.0496,0.0616,0.0738,0.0795,0.086,0.0859,0.0858,0.0863,0.0872,0.087,0.087,0.0871,0.0871,0.0872,0,-0.0456,-0.0469,-0.0503,-0.0534,-0.0585,-0.0584,-0.0615,-0.0613,-0.0591,-0.0454,-0.0343,-0.0011,0.0258,0.0447,0.0669,0.0828,0.0797,0.0789,0.0733,0.0736,0.0738,0.0735,0.0709,0.0708,0.0708,0.0707,0,0,-0.0476,-0.0506,-0.0517,-0.059,-0.0621,-0.0657,-0.0667,-0.064,-0.0536,-0.0396,-0.019,0.0112,0.0382,0.0522,0.0624,0.0656,0.0647,0.0632,0.0759,0.0682,0.0681,0.0788,0.079,0,0,0,0,0]}],[{"header":{"parameterUnit":"m.s-1","parameterCategory":2,"la1":30.2991,"la2":30.254,"lo1":-89.0895,"lo2":-89.0444,"dy":0.0017,"dx":0.0017,"nx":28,"ny":28,"refTime":"2025-07-05T09:00:00:Z","depth":"4","parameterNumber":2,"parameterNumberName":"U-component_of_CURRENTS"},"data":[0,0,0,0,0,0,0,0,0,0,0,0,0,0,0,0,0,0,0,0,0,0,0,0,0,0,0,0,0,0,0,0,0,0,0,0,0,0,0,0,0,0,0,0,0,0,0,0,0,0,0,0,0,0,0,0,0,0,-0.1237,-0.1238,0,-0.1259,-0.1259,-0.1259,-0.1267,-0.1267,-0.1268,-0.1268,-0.1323,-0.1324,-0.1325,0,0,0,0,0,0,0,0,0,0,0,0,0,-0.1131,-0.1133,-0.1237,-0.1238,-0.1238,-0.1259,-0.1259,-0.1259,-0.1267,-0.1267,-0.1268,-0.1268,-0.1323,-0.1324,-0.1326,0,0,0,0,0,0,0,0,0,0,0,0,0,-0.1164,-0.1133,-0.1237,-0.1247,-0.1249,-0.1259,-0.1259,-0.1259,-0.1267,-0.1267,-0.1268,-0.1268,-0.1322,-0.1324,-0.1326,-0.1329,0,0,-0.1331,-0.1332,0,0,0,0,0,0,0,0,-0.1162,-0.1167,-0.1245,-0.1247,-0.1248,-0.1264,-0.1242,-0.1285,-0.1267,-0.1256,-0.1268,-0.1268,-0.1308,-0.1311,-0.1309,-0.1332,-0.1334,-0.1332,-0.1333,-0.1333,-0.1334,0,0,0,0,0,0,0,-0.116,-0.1166,-0.1242,-0.1246,-0.1248,-0.1227,-0.1232,-0.1249,-0.1278,-0.1257,-0.1259,-0.1267,-0.1309,-0.1307,-0.1311,-0.1335,-0.1332,-0.1333,-0.1334,-0.1335,-0.144,-0.1442,0,0,0,0,0,0,-0.1168,-0.1165,-0.1242,-0.1243,-0.1209,-0.1229,-0.1235,-0.1256,-0.1277,-0.1281,-0.1266,-0.1267,-0.1304,-0.1308,-0.1313,-0.1366,-0.1333,-0.1335,-0.1336,-0.1439,-0.1441,-0.1443,0,0,0,0,0,0,-0.1166,-0.1175,-0.1241,-0.1206,-0.1213,-0.1231,-0.1254,-0.1256,-0.1272,-0.1284,-0.1289,-0.1283,-0.1304,-0.131,-0.1347,-0.1366,-0.1336,-0.1338,-0.1437,-0.1439,-0.1442,-0.1442,0,0,0,0,0,0,-0.1163,-0.1174,-0.1196,-0.1207,-0.1216,-0.1258,-0.1254,-0.1256,-0.1277,-0.1278,-0.1299,-0.1304,-0.1305,-0.1344,-0.1349,-0.1368,-0.1339,-0.1435,-0.1438,-0.1441,-0.1439,-0.1444,-0.1448,0,0,0,0,0,-0.1159,-0.1184,-0.1197,-0.1206,-0.1244,-0.126,-0.1262,-0.1272,-0.1277,-0.1287,-0.1306,-0.1304,-0.1368,-0.1347,-0.1352,-0.1372,-0.1433,-0.1437,-0.1441,-0.1438,-0.1443,-0.1447,0,0,0,0,0,0,-0.1143,-0.1188,-0.1202,-0.1239,-0.1255,-0.1263,-0.1277,-0.1282,-0.1303,-0.1311,-0.1319,-0.1325,-0.1368,-0.1376,-0.1352,-0.1416,-0.1403,-0.1408,-0.1399,-0.1405,-0.1409,-0.1399,-0.1341,0,0,0,0,0,-0.1153,-0.1187,-0.1215,-0.1243,-0.1258,-0.1271,-0.1281,-0.1288,-0.1306,-0.1315,-0.1337,-0.1362,-0.1385,-0.1399,-0.1424,-0.1452,-0.1449,-0.1474,-0.1478,-0.1481,-0.148,-0.15,-0.1505,-0.1455,-0.1455,-0.1455,0,0,-0.1149,-0.1182,-0.1198,-0.1243,-0.1258,-0.1278,-0.1278,-0.13,-0.1313,-0.1319,-0.1358,-0.1381,-0.1399,-0.1432,-0.1452,-0.1441,-0.1492,-0.1485,-0.1487,-0.1485,-0.1505,-0.1509,-0.1513,-0.1458,-0.1457,-0.1457,0,0,-0.1153,-0.1196,-0.1223,-0.1246,-0.1282,-0.1291,-0.1303,-0.133,-0.1343,-0.1376,-0.1388,-0.1419,-0.1462,-0.1469,-0.1477,-0.152,-0.1517,-0.1545,-0.1549,-0.1569,-0.1572,-0.1575,-0.156,-0.1562,-0.1541,-0.1541,-0.1541,0,-0.1146,-0.119,-0.1228,-0.1259,-0.1274,-0.1301,-0.1317,-0.1335,-0.137,-0.1384,-0.1395,-0.1457,-0.1472,-0.1495,-0.1513,-0.1526,-0.1533,-0.1521,-0.1571,-0.1574,-0.1577,-0.1561,-0.1563,-0.1541,-0.1541,-0.1541,-0.1541,0,-0.1165,-0.1204,-0.1221,-0.1272,-0.1293,-0.1313,-0.1344,-0.1373,-0.1397,-0.1415,-0.1461,-0.1481,-0.1514,-0.1529,-0.1532,-0.1568,-0.1563,-0.1574,-0.1549,-0.1582,-0.1563,-0.1565,-0.1542,-0.1542,-0.1542,-0.1541,0,0,-0.1129,-0.1215,-0.1224,-0.125,-0.1301,-0.1319,-0.1351,-0.1382,-0.1412,-0.1448,-0.148,-0.1512,-0.1533,-0.1545,-0.1558,-0.1574,-0.1593,-0.1588,-0.1589,-0.1555,-0.1622,-0.1493,-0.1482,-0.1621,-0.1622,-0.1623,-0.1592,0,-0.1126,-0.1185,-0.1225,-0.1265,-0.1291,-0.1329,-0.1358,-0.1395,-0.1433,-0.1481,-0.1496,-0.1541,-0.1536,-0.1562,-0.1575,-0.1601,-0.1602,-0.1599,-0.1611,-0.1611,-0.1478,-0.1482,-0.1626,-0.1593,-0.1594,-0.1594,-0.1594,0,-0.1124,-0.1167,-0.121,-0.1272,-0.1287,-0.1316,-0.1372,-0.14,-0.1463,-0.1497,-0.1533,-0.1565,-0.1588,-0.1592,-0.1611,-0.1616,-0.1619,-0.1626,-0.1625,-0.1506,-0.1486,-0.1562,-0.1597,-0.1597,-0.1597,-0.1597,-0.1596,0,-0.1077,-0.1151,-0.1186,-0.1208,-0.1283,-0.1308,-0.1343,-0.1408,-0.1437,-0.1514,-0.1546,-0.1585,-0.1603,-0.1624,-0.1624,-0.1635,-0.1642,-0.1655,-0.1529,-0.1519,-0.1644,-0.1641,-0.1666,-0.1666,-0.1666,-0.1666,-0.1666,0,-0.1046,-0.1079,-0.1177,-0.1195,-0.124,-0.1295,-0.1345,-0.1391,-0.1456,-0.1482,-0.1551,-0.1557,-0.162,-0.1627,-0.1633,-0.1564,-0.1639,-0.1518,-0.1503,-0.1643,-0.1641,-0.1643,-0.1641,-0.1665,-0.1665,-0.1665,-0.1666,0,-0.0987,-0.1052,-0.1102,-0.1191,-0.1221,-0.1254,-0.1337,-0.1368,-0.1438,-0.1471,-0.1492,-0.1545,-0.1534,-0.1567,-0.159,-0.1543,-0.152,-0.1481,-0.1601,-0.1597,-0.1381,-0.138,-0.1332,-0.1327,-0.1323,-0.1319,-0.1317,0,-0.0961,-0.0983,-0.109,-0.1123,-0.1167,-0.123,-0.1264,-0.1348,-0.1371,-0.143,-0.1423,-0.1448,-0.1466,-0.1371,-0.143,-0.1409,-0.1401,-0.138,-0.1398,-0.1356,-0.1348,-0.1353,-0.1357,-0.131,-0.1309,-0.1308,-0.1307,0,-0.0901,-0.0953,-0.0995,-0.1065,-0.1116,-0.1165,-0.1215,-0.122,-0.1288,-0.1367,-0.1309,-0.1294,-0.1271,-0.1269,-0.1261,-0.1253,-0.1394,-0.1338,-0.1347,-0.1364,-0.133,-0.1327,-0.1336,-0.1293,-0.1295,-0.1296,-0.1297,0,-0.0857,-0.0874,-0.0939,-0.0992,-0.1054,-0.1066,-0.1111,-0.1113,-0.114,-0.1199,-0.1166,-0.1186,-0.1233,-0.1184,-0.1177,-0.1157,-0.1146,-0.1125,-0.1145,-0.1161,-0.1123,-0.1056,-0.0908,0,0,0,0,0,-0.0801,-0.0814,-0.0857,-0.0907,-0.0965,-0.0997,-0.1059,-0.11,-0.1162,-0.1081,-0.1119,-0.1084,-0.1045,-0.1061,-0.1005,-0.112,-0.117,-0.1053,-0.1161,-0.1215,-0.1231,-0.1204,0,0,0,0,0,0,-0.0767,-0.0802,-0.0824,-0.0826,-0.0838,-0.0883,-0.0915,-0.096,-0.0922,-0.0983,-0.0963,-0.1014,-0.0996,-0.1051,-0.0979,-0.0987,-0.1032,-0.1078,-0.1075,-0.1206,-0.1221,-0.1234,-0.1211,0,0,0,0,0]},{"header":{"parameterUnit":"m.s-1","parameterCategory":2,"la1":30.2991,"la2":30.254,"lo1":-89.0895,"lo2":-89.0444,"dy":0.0017,"dx":0.0017,"nx":28,"ny":28,"refTime":"2025-07-05T09:00:00:Z","depth":"4","parameterNumber":3,"parameterNumberName":"V-component_of_CURRENTS"},"data":[0,0,0,0,0,0,0,0,0,0,0,0,0,0,0,0,0,0,0,0,0,0,0,0,0,0,0,0,0,0,0,0,0,0,0,0,0,0,0,0,0,0,0,0,0,0,0,0,0,0,0,0,0,0,0,0,0,0,-0.0089,-0.0089,0,-0.0099,-0.01,-0.01,-0.0088,-0.0088,-0.0087,-0.0086,-0.007,-0.0071,-0.0071,0,0,0,0,0,0,0,0,0,0,0,0,0,-0.0077,-0.0077,-0.0089,-0.0089,-0.0089,-0.0099,-0.01,-0.01,-0.0088,-0.0087,-0.0087,-0.0086,-0.007,-0.0071,-0.0071,0,0,0,0,0,0,0,0,0,0,0,0,0,-0.0086,-0.0077,-0.0089,-0.0083,-0.0082,-0.0099,-0.01,-0.01,-0.0088,-0.0087,-0.0086,-0.0086,-0.007,-0.0071,-0.0071,-0.0093,0,0,-0.0072,-0.0072,0,0,0,0,0,0,0,0,-0.0086,-0.0087,-0.0084,-0.0083,-0.0082,-0.0089,-0.0089,-0.0095,-0.0089,-0.0089,-0.0086,-0.0085,-0.0074,-0.0074,-0.0081,-0.0092,-0.0091,-0.0072,-0.0072,-0.0072,-0.0072,0,0,0,0,0,0,0,-0.0085,-0.0087,-0.0096,-0.0084,-0.0083,-0.0085,-0.0085,-0.0091,-0.0088,-0.0088,-0.0087,-0.0085,-0.0073,-0.0081,-0.0081,-0.0091,-0.0072,-0.0072,-0.0072,-0.0072,-0.0108,-0.0109,0,0,0,0,0,0,-0.0079,-0.0086,-0.0095,-0.0096,-0.0079,-0.0086,-0.0086,-0.009,-0.0088,-0.0087,-0.0085,-0.0084,-0.0081,-0.0081,-0.008,-0.0106,-0.0072,-0.0072,-0.0073,-0.0107,-0.0108,-0.0109,0,0,0,0,0,0,-0.0079,-0.008,-0.0095,-0.0089,-0.009,-0.0086,-0.0091,-0.0091,-0.0095,-0.0086,-0.0084,-0.0089,-0.008,-0.008,-0.0093,-0.0105,-0.0073,-0.0073,-0.0106,-0.0108,-0.0109,-0.0157,0,0,0,0,0,0,-0.0079,-0.0081,-0.0086,-0.0089,-0.009,-0.0111,-0.0092,-0.0092,-0.0094,-0.0092,-0.0089,-0.0086,-0.008,-0.0093,-0.0094,-0.0105,-0.0073,-0.0106,-0.0107,-0.0108,-0.0155,-0.016,-0.0164,0,0,0,0,0,-0.0079,-0.0093,-0.0087,-0.0088,-0.0097,-0.0112,-0.0114,-0.0109,-0.0095,-0.0107,-0.0105,-0.0086,-0.0102,-0.0095,-0.0095,-0.0106,-0.0105,-0.0107,-0.0108,-0.0153,-0.0159,-0.0164,0,0,0,0,0,0,-0.0094,-0.0093,-0.0086,-0.01,-0.0106,-0.0109,-0.0117,-0.0112,-0.012,-0.0115,-0.0103,-0.0102,-0.0116,-0.0107,-0.0099,-0.012,-0.0098,-0.01,-0.0131,-0.0137,-0.0142,-0.0131,-0.0073,0,0,0,0,0,-0.0099,-0.0107,-0.0107,-0.0119,-0.012,-0.0118,-0.0123,-0.012,-0.0124,-0.0126,-0.0125,-0.0122,-0.0126,-0.0128,-0.013,-0.0148,-0.0084,-0.0153,-0.0158,-0.0162,-0.0153,-0.0059,-0.0053,-0.0115,-0.0115,-0.0115,0,0,-0.0109,-0.0107,-0.0113,-0.0122,-0.0123,-0.0139,-0.012,-0.013,-0.0143,-0.0124,-0.0145,-0.014,-0.0134,-0.0153,-0.0158,-0.0146,-0.0113,-0.0164,-0.0168,-0.0156,-0.006,-0.0053,-0.0047,-0.0116,-0.0116,-0.0116,0,0,-0.0134,-0.013,-0.0145,-0.0152,-0.0154,-0.0155,-0.0158,-0.0164,-0.0166,-0.0188,-0.0173,-0.0176,-0.019,-0.0185,-0.0184,-0.0217,-0.0142,-0.0219,-0.0236,-0.0145,-0.0138,-0.0131,-0.0046,-0.0032,-0.0221,-0.0221,-0.0222,0,-0.0143,-0.0162,-0.0154,-0.017,-0.0178,-0.0163,-0.0185,-0.0191,-0.0202,-0.0202,-0.0199,-0.0202,-0.0203,-0.0207,-0.0224,-0.0227,-0.0157,-0.0216,-0.0148,-0.014,-0.0132,-0.0046,-0.0029,-0.0224,-0.0224,-0.0223,-0.0223,0,-0.0178,-0.0194,-0.0204,-0.0217,-0.0228,-0.0243,-0.0245,-0.0253,-0.025,-0.0248,-0.0252,-0.0251,-0.0243,-0.0252,-0.0254,-0.0214,-0.0176,-0.0162,-0.0128,-0.0128,-0.0039,-0.002,-0.0228,-0.0227,-0.0226,-0.0225,0,0,-0.0193,-0.0223,-0.0226,-0.0241,-0.0252,-0.0265,-0.0283,-0.0292,-0.029,-0.0296,-0.0285,-0.0306,-0.0283,-0.028,-0.0272,-0.0211,-0.0112,-0.0168,-0.0162,-0.0074,0.0104,0.0054,0.007,-0.0071,-0.0068,-0.0066,0.0144,0,-0.0221,-0.0262,-0.0269,-0.0309,-0.0329,-0.0323,-0.0343,-0.0345,-0.0336,-0.0322,-0.0299,-0.029,-0.0299,-0.0289,-0.0231,-0.0141,-0.0063,-0.0169,0.0084,0.0091,0.0055,0.0089,-0.0057,0.0158,0.0162,0.0166,0.0168,0,-0.025,-0.0273,-0.0318,-0.035,-0.0358,-0.0379,-0.0385,-0.0399,-0.0372,-0.036,-0.0331,-0.0298,-0.0241,-0.0231,-0.0057,-0.0117,-0.0008,0.0069,0.008,0.0066,0.0076,0.016,0.0203,0.02,0.0197,0.0195,0.0193,0,-0.0261,-0.0306,-0.0341,-0.0354,-0.0389,-0.0404,-0.0416,-0.0409,-0.0413,-0.0365,-0.0345,-0.0269,-0.0217,-0.0079,0.0049,0.0023,0.0272,0.0262,0.0324,0.0323,0.0328,0.0319,0.0422,0.0421,0.0421,0.042,0.042,0,-0.0284,-0.0313,-0.035,-0.0371,-0.0411,-0.0422,-0.0445,-0.0444,-0.0423,-0.0411,-0.036,-0.0316,-0.0168,-0.003,0.0092,0.0261,0.0317,0.0339,0.0378,0.03,0.0285,0.0342,0.033,0.0428,0.0426,0.0425,0.0424,0,-0.0295,-0.0318,-0.0363,-0.0405,-0.042,-0.0446,-0.0473,-0.048,-0.0459,-0.0429,-0.0409,-0.0309,-0.013,0.0022,0.0266,0.0309,0.048,0.0534,0.0449,0.0477,0.0464,0.0447,0.0631,0.0631,0.0631,0.0631,0.0631,0,-0.0307,-0.033,-0.0387,-0.0416,-0.0439,-0.0474,-0.0497,-0.0498,-0.0496,-0.0426,-0.0403,-0.0238,-0.0154,0.016,0.0302,0.0548,0.0557,0.0629,0.0525,0.0469,0.0489,0.0472,0.0455,0.0631,0.0631,0.0631,0.0631,0,-0.0331,-0.0349,-0.0386,-0.0441,-0.0476,-0.0512,-0.0537,-0.0535,-0.0515,-0.049,-0.0367,-0.023,-0.0029,0.0171,0.0362,0.0524,0.0562,0.0629,0.0629,0.0533,0.0471,0.0488,0.0471,0.0631,0.0631,0.0631,0.0631,0,-0.0346,-0.0374,-0.042,-0.0466,-0.0511,-0.0538,-0.0548,-0.0523,-0.051,-0.0429,-0.0375,-0.0176,-0.0052,0.0163,0.0339,0.0487,0.0498,0.0492,0.0499,0.05,0.0363,0.026,0.0408,0,0,0,0,0,-0.0361,-0.0393,-0.0441,-0.0491,-0.0532,-0.0555,-0.0572,-0.0571,-0.0539,-0.0451,-0.0413,-0.0222,0.0023,0.0133,0.0282,0.0313,0.0504,0.048,0.0495,0.0633,0.0633,0.0484,0,0,0,0,0,0,-0.0373,-0.042,-0.0444,-0.05,-0.0532,-0.0572,-0.0582,-0.056,-0.0505,-0.0448,-0.0294,-0.0231,0.0034,-0.0036,0.028,0.0321,0.0332,0.0606,0.0606,0.0633,0.0633,0.0632,0.048,0,0,0,0,0]}]]